Location: Maiden_LMO
(35.5760°N, 81.2120°W)
Time: 16:41:37
(UTC-04:00)

ADEOS II - Visible Passes

Search period start: 30 April 2016 00:00
Search period end: 10 May 2016 00:00
Orbit: 799 x 803 km, 98.3° (Epoch: 30 April)

Date Brightness Start Highest point End Pass type
(mag) Time Alt. Az. Time Alt. Az. Time Alt. Az.
30 Apr 4.7 04:52:13 10° NE 04:55:35 17° E 04:58:55 10° SE visible
01 May 2.2 06:04:00 10° NNE 06:09:18 89° WNW 06:14:33 10° SSW visible
02 May 3.0 05:37:50 10° NNE 05:42:57 50° E 05:48:02 10° S visible
03 May 4.1 05:12:03 10° NE 05:16:32 28° E 05:20:57 10° SSE visible
04 May 4.7 04:47:01 10° ENE 04:50:00 15° E 04:52:57 10° SE visible
05 May 2.3 05:58:28 10° NNE 06:03:45 82° ESE 06:09:00 10° S visible
06 May 3.2 05:32:22 10° NNE 05:37:24 45° E 05:42:24 10° S visible
07 May 4.2 05:06:41 10° NE 05:10:57 25° E 05:15:10 10° SSE visible
08 May 4.8 04:41:55 10° ENE 04:44:23 13° E 04:46:51 10° ESE visible
09 May 2.4 05:52:56 10° NNE 05:58:12 73° ESE 06:03:27 10° S visible
